Simultaneous Nadir Overpasses (SNOs) Predictions

Prediction of SNOs between NOAA-19 and NPP Satellite Orbit:

Table of predicted SNOs for the next 14.0 days since TLE Epoch: 1/18/2025
Index Date (NOAA-19) Time (NOAA-19) Lat,Lon (NOAA-19) SZA (NOAA-19 ) Date (NPP) Time (NPP) Lat,Lon (NPP) SZA (NPP ) Distance(km) Time Diff (sec)
1 01/26/2025 05:03:50 71.20, 95.98 90.08 01/26/2025 05:04:57 71.25, 98.28 89.99 82.42 67
2 01/26/2025 05:54:42 -71.87, -95.54 89.34 01/26/2025 05:55:53 -71.85, -95.49 89.37 2.73 71
3 01/26/2025 06:45:34 71.86, 71.73 90.65 01/26/2025 06:46:39 71.87, 71.78 90.65 2.27 65
4 01/26/2025 07:36:38 -71.91,-120.94 89.31 01/26/2025 07:37:24 -71.90,-120.97 89.33 1.36 46
5 01/26/2025 08:27:30 71.91, 46.33 90.68 01/26/2025 08:28:10 71.93, 46.30 90.69 2.77 40
6 01/26/2025 09:18:35 -71.91,-146.43 89.34 01/26/2025 09:18:54 -71.91,-146.35 89.34 2.91 19
7 01/26/2025 10:09:26 71.95, 20.94 90.70 01/26/2025 10:09:40 71.93, 20.92 90.68 2.33 14
8 01/26/2025 11:00:31 -71.96,-171.83 89.31 01/26/2025 11:00:25 -71.96,-171.83 89.30 0.93 6
9 01/26/2025 11:51:23 71.95, -4.56 90.68 01/26/2025 11:51:10 71.94, -4.47 90.66 3.36 13
10 01/26/2025 12:42:27 -72.00, 162.78 89.29 01/26/2025 12:41:56 -72.02, 162.69 89.26 3.47 31
11 01/26/2025 13:33:19 71.99, -29.95 90.70 01/26/2025 13:32:41 71.99, -29.94 90.71 0.31 38
12 01/26/2025 14:24:24 -72.00, 137.29 89.31 01/26/2025 14:23:26 -72.02, 137.31 89.27 2.98 58
13 01/26/2025 15:15:15 72.04, -55.34 90.73 01/26/2025 15:14:12 72.05, -55.42 90.75 2.87 63
14 01/26/2025 16:06:14 -72.35, 112.50 89.02 01/26/2025 16:05:02 -72.33, 111.34 88.96 39.30 72
15 01/26/2025 16:57:01 72.59, -79.70 91.20 01/26/2025 16:55:52 72.56, -81.81 91.29 70.43 69



Historial Predications of SNOs between NOAA-19 and NPP
